Time,TemperatureF,DewpointF,PressureIn,WindDirection,WindDirectionDegrees,WindSpeedMPH,WindSpeedGustMPH,Humidity,HourlyPrecipIn,Conditions,Clouds,dailyrainin,SoftwareType,DateUTC
2013-11-19 00:00:00,63.3,53.8,30.21,South,180,0.0,0.0,71,-99.99,,,-99.99,WeatherSnoop3.0,2013-11-19 05:00:00,
2013-11-19 00:01:00,63.3,54.1,30.21,South,180,0.0,0.0,72,-99.99,,,-99.99,WeatherSnoop3.0,2013-11-19 05:01:00,
2013-11-19 00:03:00,63.5,53.9,30.21,South,180,0.0,0.0,71,-99.99,,,-99.99,WeatherSnoop3.0,2013-11-19 05:03:00,
2013-11-19 00:04:00,63.5,53.9,30.21,South,180,0.0,0.0,71,-99.99,,,-99.99,WeatherSnoop3.0,2013-11-19 05:04:00,
2013-11-19 00:06:00,63.3,53.8,30.21,South,180,0.0,0.0,71,-99.99,,,-99.99,WeatherSnoop3.0,2013-11-19 05:06:00,
2013-11-19 00:08:00,63.0,53.4,30.21,South,180,0.0,0.0,71,-99.99,,,-99.99,WeatherSnoop3.0,2013-11-19 05:08:00,
2013-11-19 00:10:00,62.8,53.2,30.21,South,180,0.0,0.0,71,-99.99,,,-99.99,WeatherSnoop3.0,2013-11-19 05:10:00,
2013-11-19 00:15:00,62.8,53.2,30.22,NW,315,0.0,0.0,71,-99.99,,,-99.99,WeatherSnoop3.0,2013-11-19 05:15:00,
2013-11-19 00:20:00,62.8,53.2,30.22,West,270,0.0,0.0,71,-99.99,,,-99.99,WeatherSnoop3.0,2013-11-19 05:20:00,
2013-11-19 00:25:00,62.4,53.3,30.22,NW,315,0.0,0.0,72,-99.99,,,-99.99,WeatherSnoop3.0,2013-11-19 05:25:00,
2013-11-19 00:30:00,62.2,53.1,30.22,North,0,0.0,0.0,72,-99.99,,,-99.99,WeatherSnoop3.0,2013-11-19 05:30:00,
2013-11-19 00:35:00,61.7,52.6,30.22,South,180,0.0,0.0,72,-99.99,,,-99.99,WeatherSnoop3.0,2013-11-19 05:35:00,
2013-11-19 00:40:00,61.5,52.8,30.23,South,180,0.0,0.0,73,-99.99,,,-99.99,WeatherSnoop3.0,2013-11-19 05:40:00,
2013-11-19 00:45:00,61.3,52.6,30.23,North,0,0.0,0.0,73,-99.99,,,-99.99,WeatherSnoop3.0,2013-11-19 05:45:00,
2013-11-19 00:50:00,61.5,52.8,30.23,North,0,0.0,0.0,73,-99.99,,,-99.99,WeatherSnoop3.0,2013-11-19 05:50:00,
2013-11-19 00:55:00,61.2,52.4,30.24,East,90,0.0,0.0,73,-99.99,,,-99.99,WeatherSnoop3.0,2013-11-19 05:55:00,
2013-11-19 01:00:00,60.8,52.1,30.24,West,270,0.0,0.0,73,-99.99,,,-99.99,WeatherSnoop3.0,2013-11-19 06:00:00,
2013-11-19 01:05:00,60.8,52.1,30.24,West,270,0.0,0.0,73,-99.99,,,-99.99,WeatherSnoop3.0,2013-11-19 06:05:00,
2013-11-19 01:10:00,60.8,50.6,30.25,North,0,0.0,0.0,69,-99.99,,,-99.99,WeatherSnoop3.0,2013-11-19 06:10:00,
2013-11-19 01:15:00,60.8,49.8,30.26,North,0,0.0,0.0,67,-99.99,,,-99.99,WeatherSnoop3.0,2013-11-19 06:15:00,
2013-11-19 01:20:00,60.8,49.0,30.26,NE,45,0.0,0.0,65,-99.99,,,-99.99,WeatherSnoop3.0,2013-11-19 06:20:00,
2013-11-19 01:25:00,60.8,48.1,30.26,North,0,0.0,0.0,63,-99.99,,,-99.99,WeatherSnoop3.0,2013-11-19 06:25:00,
2013-11-19 01:30:00,60.6,48.4,30.27,North,0,0.0,0.0,64,-99.99,,,-99.99,WeatherSnoop3.0,2013-11-19 06:30:00,
2013-11-19 01:35:00,60.3,48.0,30.27,South,180,0.0,0.0,64,-99.99,,,-99.99,WeatherSnoop3.0,2013-11-19 06:35:00,
2013-11-19 01:40:00,59.9,48.1,30.27,East,90,0.0,0.0,65,-99.99,,,-99.99,WeatherSnoop3.0,2013-11-19 06:40:00,
2013-11-19 01:45:00,59.9,47.7,30.28,North,0,0.0,0.0,64,-99.99,,,-99.99,WeatherSnoop3.0,2013-11-19 06:45:00,
2013-11-19 01:50:00,60.1,47.4,30.29,West,270,0.0,0.0,63,-99.99,,,-99.99,WeatherSnoop3.0,2013-11-19 06:50:00,
2013-11-19 01:55:00,59.7,47.1,30.29,North,0,0.0,0.0,63,-99.99,,,-99.99,WeatherSnoop3.0,2013-11-19 06:55:00,
2013-11-19 02:00:00,59.7,47.1,30.30,North,0,0.0,0.0,63,-99.99,,,-99.99,WeatherSnoop3.0,2013-11-19 07:00:00,
2013-11-19 02:05:00,59.5,46.9,30.30,North,0,0.0,0.0,63,-99.99,,,-99.99,WeatherSnoop3.0,2013-11-19 07:05:00,
2013-11-19 02:10:00,59.4,46.8,30.30,North,0,0.0,0.0,63,-99.99,,,-99.99,WeatherSnoop3.0,2013-11-19 07:10:00,
2013-11-19 02:15:00,59.5,46.5,30.31,North,0,0.0,0.0,62,-99.99,,,-99.99,WeatherSnoop3.0,2013-11-19 07:15:00,
2013-11-19 02:20:00,59.4,46.8,30.31,East,90,0.0,0.0,63,-99.99,,,-99.99,WeatherSnoop3.0,2013-11-19 07:20:00,
2013-11-19 02:25:00,59.4,46.8,30.32,North,0,0.0,0.0,63,-99.99,,,-99.99,WeatherSnoop3.0,2013-11-19 07:25:00,
2013-11-19 02:30:00,58.5,46.7,30.32,North,0,0.0,0.0,65,-99.99,,,-99.99,WeatherSnoop3.0,2013-11-19 07:30:00,
2013-11-19 02:35:00,58.1,46.8,30.33,North,0,0.0,0.0,66,-99.99,,,-99.99,WeatherSnoop3.0,2013-11-19 07:35:00,
2013-11-19 02:40:00,58.1,46.4,30.33,North,0,0.0,0.0,65,-99.99,,,-99.99,WeatherSnoop3.0,2013-11-19 07:40:00,
2013-11-19 02:45:00,58.1,46.4,30.34,South,180,0.0,0.0,65,-99.99,,,-99.99,WeatherSnoop3.0,2013-11-19 07:45:00,
2013-11-19 02:51:00,57.6,45.9,30.35,North,0,0.0,0.0,65,-99.99,,,-99.99,WeatherSnoop3.0,2013-11-19 07:51:00,
2013-11-19 02:56:00,57.4,45.7,30.35,North,0,0.0,0.0,65,-99.99,,,-99.99,WeatherSnoop3.0,2013-11-19 07:56:00,
2013-11-19 03:01:00,57.2,45.5,30.35,NE,45,0.0,0.0,65,-99.99,,,-99.99,WeatherSnoop3.0,2013-11-19 08:01:00,
2013-11-19 03:06:00,57.7,45.6,30.36,NW,315,0.0,0.0,64,-99.99,,,-99.99,WeatherSnoop3.0,2013-11-19 08:06:00,
2013-11-19 03:11:00,57.2,45.1,30.36,North,0,0.0,0.0,64,-99.99,,,-99.99,WeatherSnoop3.0,2013-11-19 08:11:00,
2013-11-19 03:16:00,57.2,45.1,30.37,North,0,0.0,0.0,64,-99.99,,,-99.99,WeatherSnoop3.0,2013-11-19 08:16:00,
2013-11-19 03:21:00,57.0,45.4,30.37,North,0,0.0,0.0,65,-99.99,,,-99.99,WeatherSnoop3.0,2013-11-19 08:21:00,
2013-11-19 03:26:00,56.1,44.9,30.38,West,270,0.0,0.0,66,-99.99,,,-99.99,WeatherSnoop3.0,2013-11-19 08:26:00,
2013-11-19 03:32:00,55.9,44.7,30.38,North,0,0.0,0.0,66,-99.99,,,-99.99,WeatherSnoop3.0,2013-11-19 08:32:00,
2013-11-19 03:37:00,56.8,43.5,30.38,North,0,0.0,0.0,61,-99.99,,,-99.99,WeatherSnoop3.0,2013-11-19 08:37:00,
2013-11-19 03:42:00,56.1,43.3,30.39,North,0,0.0,0.0,62,-99.99,,,-99.99,WeatherSnoop3.0,2013-11-19 08:42:00,
2013-11-19 03:47:00,55.6,43.2,30.39,South,180,0.0,0.0,63,-99.99,,,-99.99,WeatherSnoop3.0,2013-11-19 08:47:00,
2013-11-19 03:52:00,55.4,43.0,30.40,North,0,0.0,0.0,63,-99.99,,,-99.99,WeatherSnoop3.0,2013-11-19 08:52:00,
2013-11-19 03:57:00,55.4,42.6,30.40,North,0,0.0,0.0,62,-99.99,,,-99.99,WeatherSnoop3.0,2013-11-19 08:57:00,
2013-11-19 04:02:00,55.2,42.8,30.41,West,270,0.0,0.0,63,-99.99,,,-99.99,WeatherSnoop3.0,2013-11-19 09:02:00,
2013-11-19 04:07:00,55.2,42.8,30.42,West,270,0.0,0.0,63,-99.99,,,-99.99,WeatherSnoop3.0,2013-11-19 09:07:00,
2013-11-19 04:12:00,55.0,42.7,30.42,West,270,0.0,0.0,63,-99.99,,,-99.99,WeatherSnoop3.0,2013-11-19 09:12:00,
2013-11-19 04:17:00,54.7,42.3,30.43,NW,315,0.0,0.0,63,-99.99,,,-99.99,WeatherSnoop3.0,2013-11-19 09:17:00,
2013-11-19 04:22:00,55.0,42.7,30.43,SE,135,0.0,0.0,63,-99.99,,,-99.99,WeatherSnoop3.0,2013-11-19 09:22:00,
2013-11-19 04:27:00,54.7,42.3,30.44,East,90,0.0,0.0,63,-99.99,,,-99.99,WeatherSnoop3.0,2013-11-19 09:27:00,
2013-11-19 04:32:00,54.7,41.9,30.45,East,90,0.0,0.0,62,-99.99,,,-99.99,WeatherSnoop3.0,2013-11-19 09:32:00,
2013-11-19 04:37:00,54.5,41.8,30.45,North,0,0.0,0.0,62,-99.99,,,-99.99,WeatherSnoop3.0,2013-11-19 09:37:00,
2013-11-19 04:42:00,54.3,41.6,30.46,North,0,0.0,0.0,62,-99.99,,,-99.99,WeatherSnoop3.0,2013-11-19 09:42:00,
2013-11-19 04:47:00,54.1,41.4,30.47,East,90,0.0,0.0,62,-99.99,,,-99.99,WeatherSnoop3.0,2013-11-19 09:47:00,
2013-11-19 04:52:00,54.1,41.4,30.47,SE,135,0.0,0.0,62,-99.99,,,-99.99,WeatherSnoop3.0,2013-11-19 09:52:00,
2013-11-19 04:57:00,53.8,41.5,30.48,South,180,0.0,0.0,63,-99.99,,,-99.99,WeatherSnoop3.0,2013-11-19 09:57:00,
2013-11-19 05:02:00,53.6,41.3,30.48,South,180,0.0,0.0,63,-99.99,,,-99.99,WeatherSnoop3.0,2013-11-19 10:02:00,
2013-11-19 05:07:00,53.2,41.4,30.48,East,90,0.0,0.0,64,-99.99,,,-99.99,WeatherSnoop3.0,2013-11-19 10:07:00,
2013-11-19 05:12:00,53.4,41.6,30.49,NE,45,0.0,0.0,64,-99.99,,,-99.99,WeatherSnoop3.0,2013-11-19 10:12:00,
2013-11-19 05:17:00,53.1,41.6,30.49,North,0,0.0,0.0,65,-99.99,,,-99.99,WeatherSnoop3.0,2013-11-19 10:17:00,
2013-11-19 05:22:00,52.7,41.3,30.50,South,180,0.0,0.0,65,-99.99,,,-99.99,WeatherSnoop3.0,2013-11-19 10:22:00,
2013-11-19 05:27:00,52.5,41.5,30.50,South,180,0.0,0.0,66,-99.99,,,-99.99,WeatherSnoop3.0,2013-11-19 10:27:00,
2013-11-19 05:32:00,52.2,41.2,30.50,South,180,0.0,0.0,66,-99.99,,,-99.99,WeatherSnoop3.0,2013-11-19 10:32:00,
2013-11-19 05:37:00,52.2,41.2,30.51,North,0,0.0,0.0,66,-99.99,,,-99.99,WeatherSnoop3.0,2013-11-19 10:37:00,
2013-11-19 05:42:00,52.3,40.9,30.51,SE,135,0.0,0.0,65,-99.99,,,-99.99,WeatherSnoop3.0,2013-11-19 10:42:00,
2013-11-19 05:47:00,52.3,40.9,30.52,NE,45,0.0,0.0,65,-99.99,,,-99.99,WeatherSnoop3.0,2013-11-19 10:47:00,
2013-11-19 05:52:00,52.2,40.8,30.52,East,90,0.0,0.0,65,-99.99,,,-99.99,WeatherSnoop3.0,2013-11-19 10:52:00,
2013-11-19 05:57:00,52.2,40.4,30.53,East,90,0.0,0.0,64,-99.99,,,-99.99,WeatherSnoop3.0,2013-11-19 10:57:00,
2013-11-19 06:02:00,52.0,40.2,30.54,NE,45,0.0,0.0,64,-99.99,,,-99.99,WeatherSnoop3.0,2013-11-19 11:02:00,
2013-11-19 06:07:00,52.3,40.5,30.55,North,0,0.0,0.0,64,-99.99,,,-99.99,WeatherSnoop3.0,2013-11-19 11:07:00,
2013-11-19 06:12:00,52.0,40.2,30.55,East,90,0.0,0.0,64,-99.99,,,-99.99,WeatherSnoop3.0,2013-11-19 11:12:00,
2013-11-19 06:17:00,51.3,40.7,30.56,East,90,0.0,0.0,67,-99.99,,,-99.99,WeatherSnoop3.0,2013-11-19 11:17:00,
2013-11-19 06:22:00,50.9,40.7,30.56,North,0,0.0,0.0,68,-99.99,,,-99.99,WeatherSnoop3.0,2013-11-19 11:22:00,
2013-11-19 06:28:00,50.9,40.7,30.56,North,0,0.0,0.0,68,-99.99,,,-99.99,WeatherSnoop3.0,2013-11-19 11:28:00,
2013-11-19 06:33:00,50.9,40.7,30.57,West,270,0.0,0.0,68,-99.99,,,-99.99,WeatherSnoop3.0,2013-11-19 11:33:00,
2013-11-19 06:38:00,51.1,40.9,30.57,NW,315,0.0,0.0,68,-99.99,,,-99.99,WeatherSnoop3.0,2013-11-19 11:38:00,
2013-11-19 06:43:00,50.4,40.6,30.57,NW,315,0.0,0.0,69,-99.99,,,-99.99,WeatherSnoop3.0,2013-11-19 11:43:00,
2013-11-19 06:48:00,50.4,41.0,30.56,NW,315,0.0,0.0,70,-99.99,,,-99.99,WeatherSnoop3.0,2013-11-19 11:48:00,
2013-11-19 06:53:00,50.5,40.8,30.56,North,0,0.0,1.6,69,-99.99,,,-99.99,WeatherSnoop3.0,2013-11-19 11:53:00,
2013-11-19 06:58:00,50.5,40.4,30.55,NW,315,0.0,0.0,68,-99.99,,,-99.99,WeatherSnoop3.0,2013-11-19 11:58:00,
2013-11-19 07:03:00,50.5,40.4,30.54,North,0,0.0,0.0,68,-99.99,,,-99.99,WeatherSnoop3.0,2013-11-19 12:03:00,
2013-11-19 07:08:00,50.5,40.4,30.53,North,0,0.0,0.0,68,-99.99,,,-99.99,WeatherSnoop3.0,2013-11-19 12:08:00,
2013-11-19 07:13:00,50.5,40.4,30.53,North,0,0.0,0.0,68,-99.99,,,-99.99,WeatherSnoop3.0,2013-11-19 12:13:00,
2013-11-19 07:18:00,50.7,40.2,30.53,North,0,0.0,0.0,67,-99.99,,,-99.99,WeatherSnoop3.0,2013-11-19 12:18:00,
2013-11-19 07:23:00,50.5,40.0,30.53,West,270,0.0,0.0,67,-99.99,,,-99.99,WeatherSnoop3.0,2013-11-19 12:23:00,
2013-11-19 07:28:00,50.9,40.0,30.53,North,0,0.7,5.4,66,-99.99,,,-99.99,WeatherSnoop3.0,2013-11-19 12:28:00,
2013-11-19 07:33:00,51.1,39.7,30.53,NE,45,0.0,0.0,65,-99.99,,,-99.99,WeatherSnoop3.0,2013-11-19 12:33:00,
2013-11-19 07:38:00,51.6,39.4,30.53,North,0,0.0,0.0,63,-99.99,,,-99.99,WeatherSnoop3.0,2013-11-19 12:38:00,
2013-11-19 07:43:00,51.6,39.8,30.54,North,0,0.0,0.0,64,-99.99,,,-99.99,WeatherSnoop3.0,2013-11-19 12:43:00,
2013-11-19 07:48:00,51.4,39.7,30.55,SE,135,0.0,0.0,64,-99.99,,,-99.99,WeatherSnoop3.0,2013-11-19 12:48:00,
2013-11-19 07:53:00,51.8,39.2,30.55,SW,225,0.0,0.0,62,-99.99,,,-99.99,WeatherSnoop3.0,2013-11-19 12:53:00,
2013-11-19 07:58:00,51.8,39.2,30.54,North,0,0.0,0.0,62,-99.99,,,-99.99,WeatherSnoop3.0,2013-11-19 12:58:00,
2013-11-19 08:03:00,51.8,39.2,30.54,South,180,0.0,0.7,62,-99.99,,,-99.99,WeatherSnoop3.0,2013-11-19 13:03:00,
2013-11-19 08:09:00,51.8,39.2,30.55,North,0,0.0,0.0,62,-99.99,,,-99.99,WeatherSnoop3.0,2013-11-19 13:09:00,
2013-11-19 08:14:00,52.0,39.4,30.55,South,180,0.0,0.0,62,-99.99,,,-99.99,WeatherSnoop3.0,2013-11-19 13:14:00,
2013-11-19 08:19:00,52.7,39.6,30.55,East,90,0.0,0.0,61,-99.99,,,-99.99,WeatherSnoop3.0,2013-11-19 13:19:00,
2013-11-19 08:24:00,53.2,40.1,30.54,NW,315,0.0,0.0,61,-99.99,,,-99.99,WeatherSnoop3.0,2013-11-19 13:24:00,
2013-11-19 08:29:00,52.9,38.9,30.55,East,90,0.0,0.0,59,-99.99,,,-99.99,WeatherSnoop3.0,2013-11-19 13:29:00,
2013-11-19 08:34:00,53.1,39.1,30.55,North,0,0.0,0.7,59,-99.99,,,-99.99,WeatherSnoop3.0,2013-11-19 13:34:00,
2013-11-19 08:40:00,53.1,39.1,30.56,NE,45,0.0,0.0,59,-99.99,,,-99.99,WeatherSnoop3.0,2013-11-19 13:40:00,
2013-11-19 08:45:00,53.4,39.5,30.55,West,270,0.0,0.0,59,-99.99,,,-99.99,WeatherSnoop3.0,2013-11-19 13:45:00,
2013-11-19 08:50:00,53.6,40.1,30.55,North,0,0.0,0.0,60,-99.99,,,-99.99,WeatherSnoop3.0,2013-11-19 13:50:00,
2013-11-19 08:55:00,53.4,39.0,30.55,NE,45,0.0,0.0,58,-99.99,,,-99.99,WeatherSnoop3.0,2013-11-19 13:55:00,
2013-11-19 09:00:00,53.4,39.0,30.55,North,0,0.0,0.0,58,-99.99,,,-99.99,WeatherSnoop3.0,2013-11-19 14:00:00,
2013-11-19 09:05:00,53.8,38.5,30.55,South,180,0.0,0.7,56,-99.99,,,-99.99,WeatherSnoop3.0,2013-11-19 14:05:00,
2013-11-19 09:10:00,53.6,39.2,30.56,North,0,0.0,0.0,58,-99.99,,,-99.99,WeatherSnoop3.0,2013-11-19 14:10:00,
2013-11-19 09:16:00,53.6,37.8,30.56,NW,315,0.0,0.0,55,-99.99,,,-99.99,WeatherSnoop3.0,2013-11-19 14:16:00,
2013-11-19 09:21:00,54.0,38.2,30.56,North,0,0.0,0.0,55,-99.99,,,-99.99,WeatherSnoop3.0,2013-11-19 14:21:00,
2013-11-19 09:26:00,54.1,38.3,30.55,North,0,0.0,0.0,55,-99.99,,,-99.99,WeatherSnoop3.0,2013-11-19 14:26:00,
2013-11-19 09:31:00,54.5,39.1,30.55,North,0,0.0,0.0,56,-99.99,,,-99.99,WeatherSnoop3.0,2013-11-19 14:31:00,
2013-11-19 09:34:00,54.7,39.3,30.54,North,0,0.0,0.0,56,-99.99,,,-99.99,WeatherSnoop3.0,2013-11-19 14:34:00,
2013-11-19 09:39:00,55.2,38.9,30.53,North,0,0.0,0.7,54,-99.99,,,-99.99,WeatherSnoop3.0,2013-11-19 14:39:00,
2013-11-19 09:44:00,55.4,39.5,30.53,North,0,0.0,0.0,55,-99.99,,,-99.99,WeatherSnoop3.0,2013-11-19 14:44:00,
2013-11-19 09:49:00,55.8,38.9,30.53,North,0,0.0,0.0,53,-99.99,,,-99.99,WeatherSnoop3.0,2013-11-19 14:49:00,
2013-11-19 09:54:00,56.1,39.2,30.51,NE,45,0.0,0.0,53,-99.99,,,-99.99,WeatherSnoop3.0,2013-11-19 14:54:00,
2013-11-19 09:59:00,56.7,38.7,30.51,North,0,0.0,1.6,51,-99.99,,,-99.99,WeatherSnoop3.0,2013-11-19 14:59:00,
2013-11-19 10:04:00,56.7,38.2,30.51,North,0,0.0,0.0,50,-99.99,,,-99.99,WeatherSnoop3.0,2013-11-19 15:04:00,
2013-11-19 10:10:00,58.3,38.7,30.51,North,0,0.0,0.0,48,-99.99,,,-99.99,WeatherSnoop3.0,2013-11-19 15:10:00,
2013-11-19 10:15:00,57.9,38.9,30.51,NW,315,0.0,0.0,49,-99.99,,,-99.99,WeatherSnoop3.0,2013-11-19 15:15:00,
2013-11-19 10:20:00,59.4,39.7,30.50,North,0,0.0,0.7,48,-99.99,,,-99.99,WeatherSnoop3.0,2013-11-19 15:20:00,
2013-11-19 10:25:00,59.9,38.5,30.50,NW,315,0.0,1.6,45,-99.99,,,-99.99,WeatherSnoop3.0,2013-11-19 15:25:00,
2013-11-19 10:30:00,61.3,39.8,30.50,North,0,0.0,0.0,45,-99.99,,,-99.99,WeatherSnoop3.0,2013-11-19 15:30:00,
2013-11-19 10:35:00,61.0,38.3,30.48,North,0,0.0,0.0,43,-99.99,,,-99.99,WeatherSnoop3.0,2013-11-19 15:35:00,
2013-11-19 10:40:00,62.4,39.6,30.48,North,0,0.0,0.0,43,-99.99,,,-99.99,WeatherSnoop3.0,2013-11-19 15:40:00,
2013-11-19 10:45:00,62.8,38.7,30.48,West,270,0.0,0.0,41,-99.99,,,-99.99,WeatherSnoop3.0,2013-11-19 15:45:00,
2013-11-19 10:50:00,63.7,39.5,30.47,North,0,0.0,2.2,41,-99.99,,,-99.99,WeatherSnoop3.0,2013-11-19 15:50:00,
2013-11-19 10:55:00,63.1,39.1,30.47,North,0,0.0,0.0,41,-99.99,,,-99.99,WeatherSnoop3.0,2013-11-19 15:55:00,
2013-11-19 11:00:00,63.9,39.7,30.46,SW,225,0.0,0.0,41,-99.99,,,-99.99,WeatherSnoop3.0,2013-11-19 16:00:00,
2013-11-19 11:05:00,62.2,37.0,30.46,North,0,0.0,0.0,39,-99.99,,,-99.99,WeatherSnoop3.0,2013-11-19 16:05:00,
2013-11-19 11:10:00,63.0,38.9,30.45,East,90,0.0,0.0,41,-99.99,,,-99.99,WeatherSnoop3.0,2013-11-19 16:10:00,
2013-11-19 11:15:00,63.0,38.9,30.45,East,90,0.0,0.0,41,-99.99,,,-99.99,WeatherSnoop3.0,2013-11-19 16:15:00,
2013-11-19 11:20:00,63.0,38.9,30.45,East,90,0.0,0.0,41,-99.99,,,-99.99,WeatherSnoop3.0,2013-11-19 16:20:00,
2013-11-19 11:25:00,63.0,38.3,30.45,North,0,0.0,0.0,40,-99.99,,,-99.99,WeatherSnoop3.0,2013-11-19 16:25:00,
2013-11-19 11:30:00,63.0,38.3,30.45,East,90,0.0,7.6,40,-99.99,,,-99.99,WeatherSnoop3.0,2013-11-19 16:30:00,
2013-11-19 11:35:00,62.4,39.0,30.45,NE,45,0.0,0.0,42,-99.99,,,-99.99,WeatherSnoop3.0,2013-11-19 16:35:00,
2013-11-19 11:40:00,63.7,39.5,30.45,West,270,0.0,0.0,41,-99.99,,,-99.99,WeatherSnoop3.0,2013-11-19 16:40:00,
2013-11-19 11:45:00,62.8,38.1,30.44,East,90,0.0,0.0,40,-99.99,,,-99.99,WeatherSnoop3.0,2013-11-19 16:45:00,
2013-11-19 11:50:00,62.4,39.0,30.43,South,180,0.0,0.0,42,-99.99,,,-99.99,WeatherSnoop3.0,2013-11-19 16:50:00,
2013-11-19 11:55:00,63.3,39.2,30.44,North,0,0.0,0.0,41,-99.99,,,-99.99,WeatherSnoop3.0,2013-11-19 16:55:00,
2013-11-19 12:00:00,63.1,39.7,30.43,South,180,0.0,0.0,42,-99.99,,,-99.99,WeatherSnoop3.0,2013-11-19 17:00:00,
2013-11-19 12:05:00,64.8,41.7,30.42,SE,135,0.0,0.0,43,-99.99,,,-99.99,WeatherSnoop3.0,2013-11-19 17:05:00,
2013-11-19 12:10:00,64.4,40.8,30.42,SE,135,0.0,0.0,42,-99.99,,,-99.99,WeatherSnoop3.0,2013-11-19 17:10:00,
2013-11-19 12:15:00,64.9,41.3,30.41,South,180,0.0,0.0,42,-99.99,,,-99.99,WeatherSnoop3.0,2013-11-19 17:15:00,
2013-11-19 12:20:00,64.6,41.0,30.41,NE,45,0.0,0.0,42,-99.99,,,-99.99,WeatherSnoop3.0,2013-11-19 17:20:00,
2013-11-19 12:25:00,64.6,39.7,30.41,SW,225,0.0,0.0,40,-99.99,,,-99.99,WeatherSnoop3.0,2013-11-19 17:25:00,
2013-11-19 12:30:00,65.8,40.8,30.41,North,0,0.0,0.0,40,-99.99,,,-99.99,WeatherSnoop3.0,2013-11-19 17:30:00,
2013-11-19 12:35:00,65.1,38.9,30.40,West,270,0.0,0.0,38,-99.99,,,-99.99,WeatherSnoop3.0,2013-11-19 17:35:00,
2013-11-19 12:40:00,65.1,39.5,30.40,North,0,0.0,0.0,39,-99.99,,,-99.99,WeatherSnoop3.0,2013-11-19 17:40:00,
2013-11-19 12:45:00,63.7,37.6,30.40,North,0,0.0,0.0,38,-99.99,,,-99.99,WeatherSnoop3.0,2013-11-19 17:45:00,
2013-11-19 12:50:00,65.3,41.0,30.40,South,180,0.0,0.0,41,-99.99,,,-99.99,WeatherSnoop3.0,2013-11-19 17:50:00,
2013-11-19 12:55:00,66.9,42.4,30.39,South,180,0.0,0.0,41,-99.99,,,-99.99,WeatherSnoop3.0,2013-11-19 17:55:00,
2013-11-19 13:00:00,67.1,42.0,30.39,South,180,0.0,0.0,40,-99.99,,,-99.99,WeatherSnoop3.0,2013-11-19 18:00:00,
2013-11-19 13:05:00,65.5,39.9,30.39,SE,135,0.0,0.0,39,-99.99,,,-99.99,WeatherSnoop3.0,2013-11-19 18:05:00,
2013-11-19 13:10:00,66.4,40.0,30.38,South,180,0.0,0.0,38,-99.99,,,-99.99,WeatherSnoop3.0,2013-11-19 18:10:00,
2013-11-19 13:15:00,65.8,41.5,30.38,North,0,0.0,0.7,41,-99.99,,,-99.99,WeatherSnoop3.0,2013-11-19 18:15:00,
2013-11-19 13:20:00,64.6,39.1,30.38,NE,45,0.0,0.0,39,-99.99,,,-99.99,WeatherSnoop3.0,2013-11-19 18:20:00,
2013-11-19 13:25:00,64.4,38.2,30.38,North,0,0.0,0.0,38,-99.99,,,-99.99,WeatherSnoop3.0,2013-11-19 18:25:00,
2013-11-19 13:26:00,63.7,36.9,30.38,North,0,0.0,0.0,37,-99.99,,,-99.99,WeatherSnoop3.0,2013-11-19 18:26:00,
2013-11-19 13:32:00,63.1,35.8,30.37,NE,45,0.0,0.0,36,-99.99,,,-99.99,WeatherSnoop3.0,2013-11-19 18:32:00,
2013-11-19 13:37:00,62.6,35.3,30.37,South,180,0.0,0.0,36,-99.99,,,-99.99,WeatherSnoop3.0,2013-11-19 18:37:00,
2013-11-19 13:42:00,62.1,38.1,30.37,West,270,0.0,0.0,41,-99.99,,,-99.99,WeatherSnoop3.0,2013-11-19 18:42:00,
2013-11-19 13:47:00,61.3,37.4,30.36,NW,315,0.0,0.0,41,-99.99,,,-99.99,WeatherSnoop3.0,2013-11-19 18:47:00,
2013-11-19 13:52:00,62.2,38.9,30.35,South,180,0.0,0.0,42,-99.99,,,-99.99,WeatherSnoop3.0,2013-11-19 18:52:00,
2013-11-19 13:57:00,62.4,39.6,30.35,North,0,0.0,0.0,43,-99.99,,,-99.99,WeatherSnoop3.0,2013-11-19 18:57:00,
2013-11-19 14:02:00,61.3,36.8,30.34,North,0,0.0,0.0,40,-99.99,,,-99.99,WeatherSnoop3.0,2013-11-19 19:02:00,
2013-11-19 14:07:00,61.5,38.2,30.32,North,0,0.0,0.0,42,-99.99,,,-99.99,WeatherSnoop3.0,2013-11-19 19:07:00,
2013-11-19 14:12:00,61.7,38.4,30.33,North,0,0.0,0.0,42,-99.99,,,-99.99,WeatherSnoop3.0,2013-11-19 19:12:00,
2013-11-19 14:16:00,61.3,38.1,30.33,East,90,0.0,0.0,42,-99.99,,,-99.99,WeatherSnoop3.0,2013-11-19 19:16:00,
2013-11-19 14:21:00,60.8,37.6,30.32,SE,135,0.0,0.0,42,-99.99,,,-99.99,WeatherSnoop3.0,2013-11-19 19:21:00,
2013-11-19 14:26:00,60.8,38.2,30.32,East,90,0.0,0.0,43,-99.99,,,-99.99,WeatherSnoop3.0,2013-11-19 19:26:00,
2013-11-19 14:31:00,60.8,38.2,30.32,North,0,0.0,0.0,43,-99.99,,,-99.99,WeatherSnoop3.0,2013-11-19 19:31:00,
2013-11-19 14:36:00,61.2,38.5,30.31,South,180,0.0,0.0,43,-99.99,,,-99.99,WeatherSnoop3.0,2013-11-19 19:36:00,
2013-11-19 14:41:00,61.0,38.3,30.31,SW,225,0.0,0.0,43,-99.99,,,-99.99,WeatherSnoop3.0,2013-11-19 19:41:00,
2013-11-19 14:46:00,61.3,38.1,30.31,SW,225,0.0,0.0,42,-99.99,,,-99.99,WeatherSnoop3.0,2013-11-19 19:46:00,
2013-11-19 14:52:00,61.0,38.3,30.31,SW,225,0.0,0.0,43,-99.99,,,-99.99,WeatherSnoop3.0,2013-11-19 19:52:00,
2013-11-19 14:57:00,60.8,37.6,30.31,North,0,0.0,0.0,42,-99.99,,,-99.99,WeatherSnoop3.0,2013-11-19 19:57:00,
2013-11-19 15:02:00,61.0,38.3,30.30,South,180,0.0,0.0,43,-99.99,,,-99.99,WeatherSnoop3.0,2013-11-19 20:02:00,
2013-11-19 15:07:00,60.8,38.2,30.30,South,180,0.0,0.0,43,-99.99,,,-99.99,WeatherSnoop3.0,2013-11-19 20:07:00,
2013-11-19 15:12:00,60.8,38.8,30.31,North,0,0.0,0.0,44,-99.99,,,-99.99,WeatherSnoop3.0,2013-11-19 20:12:00,
2013-11-19 15:17:00,60.6,39.2,30.31,South,180,0.0,0.0,45,-99.99,,,-99.99,WeatherSnoop3.0,2013-11-19 20:17:00,
2013-11-19 15:22:00,60.3,41.5,30.32,NW,315,0.0,0.0,50,-99.99,,,-99.99,WeatherSnoop3.0,2013-11-19 20:22:00,
2013-11-19 15:27:00,59.5,42.9,30.32,NW,315,0.0,0.0,54,-99.99,,,-99.99,WeatherSnoop3.0,2013-11-19 20:27:00,
2013-11-19 15:32:00,59.4,43.2,30.32,North,0,0.0,0.0,55,-99.99,,,-99.99,WeatherSnoop3.0,2013-11-19 20:32:00,
2013-11-19 15:37:00,59.2,43.0,30.32,North,0,0.0,0.7,55,-99.99,,,-99.99,WeatherSnoop3.0,2013-11-19 20:37:00,
2013-11-19 15:42:00,58.8,43.6,30.33,South,180,0.0,0.0,57,-99.99,,,-99.99,WeatherSnoop3.0,2013-11-19 20:42:00,
2013-11-19 15:47:00,58.8,43.2,30.33,West,270,0.0,0.0,56,-99.99,,,-99.99,WeatherSnoop3.0,2013-11-19 20:47:00,
2013-11-19 15:52:00,58.8,43.6,30.33,South,180,0.0,0.0,57,-99.99,,,-99.99,WeatherSnoop3.0,2013-11-19 20:52:00,
2013-11-19 15:57:00,58.6,43.5,30.33,East,90,0.0,0.0,57,-99.99,,,-99.99,WeatherSnoop3.0,2013-11-19 20:57:00,
2013-11-19 16:02:00,58.3,43.6,30.33,North,0,0.0,0.0,58,-99.99,,,-99.99,WeatherSnoop3.0,2013-11-19 21:02:00,
2013-11-19 16:08:00,58.3,44.0,30.33,South,180,0.0,0.0,59,-99.99,,,-99.99,WeatherSnoop3.0,2013-11-19 21:08:00,
2013-11-19 16:13:00,58.1,43.4,30.33,East,90,0.0,0.0,58,-99.99,,,-99.99,WeatherSnoop3.0,2013-11-19 21:13:00,
2013-11-19 16:18:00,57.7,43.1,30.35,SE,135,0.0,0.0,58,-99.99,,,-99.99,WeatherSnoop3.0,2013-11-19 21:18:00,
2013-11-19 16:23:00,57.7,43.1,30.35,North,0,0.0,0.0,58,-99.99,,,-99.99,WeatherSnoop3.0,2013-11-19 21:23:00,
2013-11-19 16:28:00,57.7,43.1,30.36,South,180,0.0,0.0,58,-99.99,,,-99.99,WeatherSnoop3.0,2013-11-19 21:28:00,
2013-11-19 16:33:00,57.4,43.6,30.36,North,0,0.0,0.0,60,-99.99,,,-99.99,WeatherSnoop3.0,2013-11-19 21:33:00,
2013-11-19 16:38:00,57.0,44.1,30.37,North,0,0.0,0.0,62,-99.99,,,-99.99,WeatherSnoop3.0,2013-11-19 21:38:00,
2013-11-19 16:43:00,57.0,44.1,30.38,South,180,0.0,0.0,62,-99.99,,,-99.99,WeatherSnoop3.0,2013-11-19 21:43:00,
2013-11-19 16:48:00,56.7,43.8,30.38,NW,315,0.0,0.0,62,-99.99,,,-99.99,WeatherSnoop3.0,2013-11-19 21:48:00,
2013-11-19 16:53:00,56.1,44.1,30.38,South,180,0.0,0.0,64,-99.99,,,-99.99,WeatherSnoop3.0,2013-11-19 21:53:00,
2013-11-19 16:59:00,55.8,44.2,30.38,NE,45,0.0,0.0,65,-99.99,,,-99.99,WeatherSnoop3.0,2013-11-19 21:59:00,
2013-11-19 17:04:00,55.6,44.0,30.39,North,0,0.0,0.0,65,-99.99,,,-99.99,WeatherSnoop3.0,2013-11-19 22:04:00,
2013-11-19 17:09:00,55.2,43.3,30.39,North,0,0.0,0.0,64,-99.99,,,-99.99,WeatherSnoop3.0,2013-11-19 22:09:00,
2013-11-19 17:14:00,54.7,43.1,30.40,North,0,0.0,0.0,65,-99.99,,,-99.99,WeatherSnoop3.0,2013-11-19 22:14:00,
2013-11-19 17:19:00,54.1,43.0,30.41,North,0,0.0,0.0,66,-99.99,,,-99.99,WeatherSnoop3.0,2013-11-19 22:19:00,
2013-11-19 17:24:00,53.6,43.3,30.42,North,0,0.0,0.0,68,-99.99,,,-99.99,WeatherSnoop3.0,2013-11-19 22:24:00,
2013-11-19 17:29:00,53.2,43.7,30.43,South,180,0.0,0.0,70,-99.99,,,-99.99,WeatherSnoop3.0,2013-11-19 22:29:00,
2013-11-19 17:34:00,52.7,43.9,30.43,South,180,0.0,0.0,72,-99.99,,,-99.99,WeatherSnoop3.0,2013-11-19 22:34:00,
2013-11-19 17:39:00,52.2,43.4,30.44,South,180,0.0,0.0,72,-99.99,,,-99.99,WeatherSnoop3.0,2013-11-19 22:39:00,
2013-11-19 17:44:00,52.0,43.2,30.44,South,180,0.0,0.0,72,-99.99,,,-99.99,WeatherSnoop3.0,2013-11-19 22:44:00,
2013-11-19 17:49:00,51.8,43.4,30.45,South,180,0.0,0.0,73,-99.99,,,-99.99,WeatherSnoop3.0,2013-11-19 22:49:00,
2013-11-19 17:54:00,50.9,43.3,30.46,South,180,0.0,0.0,75,-99.99,,,-99.99,WeatherSnoop3.0,2013-11-19 22:54:00,
2013-11-19 17:59:00,50.4,43.4,30.46,South,180,0.0,0.0,77,-99.99,,,-99.99,WeatherSnoop3.0,2013-11-19 22:59:00,
2013-11-19 18:04:00,50.2,43.6,30.47,South,180,0.0,0.0,78,-99.99,,,-99.99,WeatherSnoop3.0,2013-11-19 23:04:00,
2013-11-19 18:09:00,49.8,43.6,30.47,South,180,0.0,0.0,79,-99.99,,,-99.99,WeatherSnoop3.0,2013-11-19 23:09:00,
2013-11-19 18:14:00,49.8,44.2,30.48,South,180,0.0,0.0,81,-99.99,,,-99.99,WeatherSnoop3.0,2013-11-19 23:14:00,
2013-11-19 18:19:00,49.1,43.5,30.48,South,180,0.0,0.0,81,-99.99,,,-99.99,WeatherSnoop3.0,2013-11-19 23:19:00,
2013-11-19 18:24:00,48.7,43.2,30.49,South,180,0.0,0.0,81,-99.99,,,-99.99,WeatherSnoop3.0,2013-11-19 23:24:00,
2013-11-19 18:30:00,48.4,43.1,30.50,South,180,0.0,0.0,82,-99.99,,,-99.99,WeatherSnoop3.0,2013-11-19 23:30:00,
2013-11-19 18:35:00,48.4,42.8,30.51,South,180,0.0,0.0,81,-99.99,,,-99.99,WeatherSnoop3.0,2013-11-19 23:35:00,
2013-11-19 18:40:00,48.4,42.8,30.52,South,180,0.0,0.0,81,-99.99,,,-99.99,WeatherSnoop3.0,2013-11-19 23:40:00,
2013-11-19 18:45:00,48.4,42.5,30.53,South,180,0.0,0.0,80,-99.99,,,-99.99,WeatherSnoop3.0,2013-11-19 23:45:00,
2013-11-19 19:27:00,49.5,41.9,30.61,South,180,0.0,0.0,75,-99.99,,,-99.99,WeatherSnoop3.0,2013-11-20 00:27:00,
2013-11-19 19:33:00,49.1,41.9,30.61,South,180,0.0,0.0,76,-99.99,,,-99.99,WeatherSnoop3.0,2013-11-20 00:33:00,
2013-11-19 19:38:00,48.9,42.0,30.61,South,180,0.0,0.0,77,-99.99,,,-99.99,WeatherSnoop3.0,2013-11-20 00:38:00,
2013-11-19 19:43:00,48.6,41.7,30.62,South,180,0.0,0.0,77,-99.99,,,-99.99,WeatherSnoop3.0,2013-11-20 00:43:00,
2013-11-19 19:48:00,48.4,41.8,30.63,South,180,0.0,0.0,78,-99.99,,,-99.99,WeatherSnoop3.0,2013-11-20 00:48:00,
2013-11-19 19:53:00,47.8,42.0,30.62,South,180,0.0,0.0,80,-99.99,,,-99.99,WeatherSnoop3.0,2013-11-20 00:53:00,
2013-11-19 19:58:00,47.5,41.9,30.63,South,180,0.0,0.0,81,-99.99,,,-99.99,WeatherSnoop3.0,2013-11-20 00:58:00,
2013-11-19 20:03:00,47.1,41.9,30.63,South,180,0.0,0.0,82,-99.99,,,-99.99,WeatherSnoop3.0,2013-11-20 01:03:00,
2013-11-19 20:08:00,46.8,41.9,30.63,South,180,0.0,0.0,83,-99.99,,,-99.99,WeatherSnoop3.0,2013-11-20 01:08:00,
2013-11-19 20:13:00,46.6,41.7,30.64,South,180,0.0,0.0,83,-99.99,,,-99.99,WeatherSnoop3.0,2013-11-20 01:13:00,
2013-11-19 20:36:00,46.0,41.8,30.66,South,180,0.0,0.0,85,-99.99,,,-99.99,WeatherSnoop3.0,2013-11-20 01:36:00,
2013-11-19 20:42:00,46.0,41.8,30.66,South,180,0.0,0.0,85,-99.99,,,-99.99,WeatherSnoop3.0.1,2013-11-20 01:42:00,
2013-11-19 20:47:00,46.2,42.0,30.66,South,180,0.0,0.0,85,-99.99,,,-99.99,WeatherSnoop3.0.1,2013-11-20 01:47:00,
2013-11-19 20:52:00,46.0,41.8,30.66,South,180,0.0,0.0,85,-99.99,,,-99.99,WeatherSnoop3.0.1,2013-11-20 01:52:00,
2013-11-19 20:57:00,45.9,41.6,30.66,South,180,0.0,0.0,85,-99.99,,,-99.99,WeatherSnoop3.0.1,2013-11-20 01:57:00,
2013-11-19 21:02:00,46.0,41.8,30.66,South,180,0.0,0.0,85,-99.99,,,-99.99,WeatherSnoop3.0.1,2013-11-20 02:02:00,
2013-11-19 21:07:00,46.0,41.8,30.67,South,180,0.0,0.0,85,-99.99,,,-99.99,WeatherSnoop3.0.1,2013-11-20 02:07:00,
2013-11-19 21:12:00,46.0,41.8,30.67,South,180,0.0,0.0,85,-99.99,,,-99.99,WeatherSnoop3.0.1,2013-11-20 02:12:00,
2013-11-19 21:17:00,46.8,42.8,30.68,South,180,0.0,0.0,86,-99.99,,,-99.99,WeatherSnoop3.0.1,2013-11-20 02:17:00,
2013-11-19 21:22:00,46.9,43.0,30.69,South,180,0.0,0.0,86,-99.99,,,-99.99,WeatherSnoop3.0.1,2013-11-20 02:22:00,
2013-11-19 21:27:00,47.1,42.8,30.69,South,180,0.0,0.0,85,-99.99,,,-99.99,WeatherSnoop3.0.1,2013-11-20 02:27:00,
2013-11-19 21:32:00,47.3,43.0,30.70,North,0,0.0,0.0,85,-99.99,,,-99.99,WeatherSnoop3.0.1,2013-11-20 02:32:00,
2013-11-19 21:37:00,47.1,42.8,30.70,North,0,0.0,0.0,85,-99.99,,,-99.99,WeatherSnoop3.0.1,2013-11-20 02:37:00,
2013-11-19 21:42:00,47.1,42.5,30.71,North,0,0.0,0.0,84,-99.99,,,-99.99,WeatherSnoop3.0.1,2013-11-20 02:42:00,
2013-11-19 21:47:00,46.9,42.4,30.71,North,0,0.0,0.0,84,-99.99,,,-99.99,WeatherSnoop3.0.1,2013-11-20 02:47:00,
2013-11-19 21:52:00,46.9,42.4,30.72,North,0,0.0,0.0,84,-99.99,,,-99.99,WeatherSnoop3.0.1,2013-11-20 02:52:00,
2013-11-19 21:57:00,47.3,42.4,30.72,NE,45,0.0,0.0,83,-99.99,,,-99.99,WeatherSnoop3.0.1,2013-11-20 02:57:00,
2013-11-19 22:02:00,47.7,42.4,30.72,NE,45,0.0,0.0,82,-99.99,,,-99.99,WeatherSnoop3.0.1,2013-11-20 03:02:00,
2013-11-19 22:07:00,47.7,42.4,30.72,NE,45,0.0,0.0,82,-99.99,,,-99.99,WeatherSnoop3.0.1,2013-11-20 03:07:00,
2013-11-19 22:12:00,47.8,42.3,30.73,East,90,0.0,0.0,81,-99.99,,,-99.99,WeatherSnoop3.0.1,2013-11-20 03:12:00,
2013-11-19 22:18:00,47.8,42.0,30.74,East,90,0.0,0.0,80,-99.99,,,-99.99,WeatherSnoop3.0.1,2013-11-20 03:18:00,
2013-11-19 22:23:00,48.0,42.1,30.74,East,90,0.0,0.0,80,-99.99,,,-99.99,WeatherSnoop3.0.1,2013-11-20 03:23:00,
2013-11-19 22:28:00,48.2,42.0,30.74,East,90,0.0,0.0,79,-99.99,,,-99.99,WeatherSnoop3.0.1,2013-11-20 03:28:00,
2013-11-19 22:33:00,48.2,42.0,30.74,East,90,0.0,0.0,79,-99.99,,,-99.99,WeatherSnoop3.0.1,2013-11-20 03:33:00,
2013-11-19 22:38:00,48.4,41.8,30.74,East,90,0.0,0.0,78,-99.99,,,-99.99,WeatherSnoop3.0.1,2013-11-20 03:38:00,
2013-11-19 22:43:00,48.6,42.0,30.74,East,90,0.0,0.0,78,-99.99,,,-99.99,WeatherSnoop3.0.1,2013-11-20 03:43:00,
2013-11-19 22:48:00,48.7,41.9,30.75,East,90,0.0,0.0,77,-99.99,,,-99.99,WeatherSnoop3.0.1,2013-11-20 03:48:00,
2013-11-19 22:53:00,48.7,41.5,30.75,North,0,0.0,0.0,76,-99.99,,,-99.99,WeatherSnoop3.0.1,2013-11-20 03:53:00,
2013-11-19 22:58:00,48.7,41.5,30.74,North,0,0.0,0.0,76,-99.99,,,-99.99,WeatherSnoop3.0.1,2013-11-20 03:58:00,
2013-11-19 23:03:00,48.7,41.5,30.74,North,0,0.0,0.0,76,-99.99,,,-99.99,WeatherSnoop3.0.1,2013-11-20 04:03:00,
2013-11-19 23:08:00,48.7,41.5,30.74,North,0,0.0,0.0,76,-99.99,,,-99.99,WeatherSnoop3.0.1,2013-11-20 04:08:00,
2013-11-19 23:13:00,48.6,41.0,30.74,North,0,0.0,0.0,75,-99.99,,,-99.99,WeatherSnoop3.0.1,2013-11-20 04:13:00,
2013-11-19 23:18:00,48.6,41.0,30.74,North,0,0.0,0.0,75,-99.99,,,-99.99,WeatherSnoop3.0.1,2013-11-20 04:18:00,
2013-11-19 23:23:00,48.7,41.2,30.74,North,0,0.0,0.0,75,-99.99,,,-99.99,WeatherSnoop3.0.1,2013-11-20 04:23:00,
2013-11-19 23:28:00,49.1,41.5,30.75,North,0,0.0,0.0,75,-99.99,,,-99.99,WeatherSnoop3.0.1,2013-11-20 04:28:00,
2013-11-19 23:33:00,49.6,41.7,30.76,North,0,0.0,0.0,74,-99.99,,,-99.99,WeatherSnoop3.0.1,2013-11-20 04:33:00,
2013-11-19 23:38:00,50.0,41.7,30.75,East,90,0.0,0.0,73,-99.99,,,-99.99,WeatherSnoop3.0.1,2013-11-20 04:38:00,
2013-11-19 23:44:00,50.0,41.7,30.76,North,0,0.0,0.0,73,-99.99,,,-99.99,WeatherSnoop3.0.1,2013-11-20 04:44:00,
2013-11-19 23:50:00,49.8,41.9,30.76,North,0,0.0,0.0,74,-99.99,,,-99.99,WeatherSnoop3.0.1,2013-11-20 04:50:00,
2013-11-19 23:55:00,49.6,41.7,30.76,North,0,0.0,0.0,74,-99.99,,,-99.99,WeatherSnoop3.0.1,2013-11-20 04:55:00,